FALCON 9 DEB, 48609

Orbit data source: Space-Track

FALCON 9 DEB, 48609 is space debris in LEO originally from a launch on Sat, 15 May 2021 UTC launched from the Air Force Eastern Test Range (AFETR). Debris objects in space refer to the collection of defunct objects orbiting the Earth. Examples of debris include non-operational satellites, rocket bodies, and fragments generated from explosions, collisions, or faulty payload assembly.

Loading next visibility...
Identifier
48609, 2021-041BJ
Orbit
LEO
Country
Flag of USUS
Related business
Manufacturer
SpaceX/Seattle
Mission
Spacecraft
Bus & Motor
Unknown
Mass
~100 kg wet, ~100 kg dry
Launch date (UTC)
2021-05-15 (5 years ago)
Launch vehicle
Unknown
Launch site
Air Force Eastern Test Range (AFETR)
Object type
Payload
Rocket body
Debris
Shape & HBR
Cyl, 3.5 m
Radar Cross Section
0.110 m², Medium (>0.1 m² and < 1m²)

Expand to show TLE details & history
Last TLE update: 2 days ago

TLE from 2 days ago
0 FALCON 9 DEB
1 48609U 21041BJ  26171.42239387  .00002734  00000-0  17125-3 0  9995
2 48609  53.0291  74.3484 0010395 124.2672 235.9306 15.12700054279989
Epoch: 2026-06-20T10:08Z
TLE epoch observation values (Epoch: 2026-06-20T10:08:14.830Z)
Latitude
0.00005°
Longitude
13.6494°
Altitude
532.875 km
Speed
7.595 km/s
True Right ascension
04h 57m 23s
True Declination
0° 00' 00"
Sunlit
Object was in daylight at epoch
Visualization orbit readout
Latitude
Unknown
Longitude
Unknown
Altitude
Unknown
Speed
Unknown
Apparent Right ascension
Unknown
Apparent Declination
Unknown
Sunlit
N/A
Visualization observer readout
Local Sidereal Time
21:38:17
Azimuth
Unknown
Elevation
Unknown
Doppler factor
Unknown
Orbital elements
Apogee altitude
535.425 km
Perigee altitude
521.066 km
Semi-major axis
6,906.382 km
Eccentricity
0.00104
Inclination
53.0291°
RAAN
74.3484°
Arg. of periapsis
124.2672°
True anomaly
235.832°
Mean anomaly
235.9306°
Eccentric anomaly
235.88129°
Mean motion
3.78153 °/min
Orbital period
95.2 mins
BSTAR
0.00017125
Loading maneuver chart data...
Computing Atmospheric mass density...
Loading historical data...
Loading historical data...
Loading historical data...
Loading historical data...
Loading historical data...
Loading historical data...
Loading historical data...

Documentation

Showing up to 5 results
|